CDT,Max TemperatureF,Mean TemperatureF,Min TemperatureF,Max Dew PointF,MeanDew PointF,Min DewpointF,Max Humidity, Mean Humidity, Min Humidity, Max Sea Level PressureIn, Mean Sea Level PressureIn, Min Sea Level PressureIn, Max VisibilityMiles, Mean VisibilityMiles, Min VisibilityMiles, Max Wind SpeedMPH, Mean Wind SpeedMPH, Max Gust SpeedMPH,PrecipitationIn, CloudCover, Events, WindDirDegrees
2012-7-1,94,83,71,71,67,60,93,63,33,29.89,29.84,29.79,10,9,5,20,9,25,T,0,,175
2012-7-2,96,85,74,69,65,60,74,54,34,29.85,29.81,29.78,10,10,10,23,14,29,0.00,0,,183
2012-7-3,99,86,73,70,67,64,73,56,38,29.79,29.75,29.71,10,10,10,21,12,28,0.00,0,,190
2012-7-4,97,87,77,70,66,61,62,52,41,29.76,29.73,29.71,10,10,10,23,15,28,0.00,0,,176
2012-7-5,101,89,77,70,66,62,64,48,31,29.86,29.83,29.77,10,10,10,20,11,25,T,1,Rain,184
2012-7-6,102,90,77,71,65,62,74,52,29,29.96,29.87,29.85,10,10,10,23,13,30,0.00,0,,187
2012-7-7,86,78,69,68,64,60,79,65,51,30.12,30.05,29.97,10,10,10,18,12,23,0.00,6,,8
2012-7-8,87,77,67,60,57,53,76,55,34,30.16,30.12,30.09,10,10,10,21,9,29,0.00,2,,40
2012-7-9,92,76,59,63,58,55,87,59,30,30.16,30.12,30.06,10,10,10,20,5,26,0.00,2,,12
2012-7-10,89,74,59,62,54,48,97,62,26,30.16,30.12,30.08,10,10,6,14,5,21,0.00,0,,91
2012-7-11,88,71,54,59,55,51,93,62,31,30.13,30.08,29.99,10,10,10,13,5,20,0.00,0,,132
2012-7-12,95,79,62,62,59,54,90,58,26,30.00,29.96,29.91,10,9,4,15,7,25,T,0,Rain,200
2012-7-13,98,81,63,63,57,53,78,51,24,29.99,29.95,29.90,10,10,10,12,4,15,0.00,0,,142
2012-7-14,98,81,64,64,60,56,87,56,25,29.99,29.96,29.92,10,10,7,13,4,18,0.00,1,,154
2012-7-15,99,83,67,66,64,61,87,58,29,29.97,29.91,29.84,10,10,7,23,12,32,0.00,0,,144
2012-7-16,97,85,72,66,61,57,69,49,29,29.88,29.81,29.74,10,10,10,23,13,29,0.00,0,,180
2012-7-17,101,87,73,66,63,59,68,47,26,29.78,29.75,29.72,10,10,10,21,9,25,0.00,0,,173
2012-7-18,99,85,71,66,65,61,79,55,30,29.88,29.81,29.74,10,10,10,16,6,20,0.00,0,,53
2012-7-19,102,84,65,71,64,55,90,57,23,30.01,29.96,29.89,10,10,7,16,5,20,0.00,0,,151
2012-7-20,99,84,68,68,65,60,84,57,29,30.06,30.01,29.96,10,10,10,20,10,25,0.00,0,,168
2012-7-21,97,84,70,64,61,58,73,51,29,30.03,29.96,29.87,10,10,10,24,12,33,T,0,,170
2012-7-22,105,88,71,65,58,53,58,40,21,29.94,29.89,29.86,10,10,10,25,12,35,0.00,0,,184
2012-7-23,104,88,72,66,61,57,64,44,23,29.96,29.90,29.83,10,10,10,23,11,30,0.00,0,,186
2012-7-24,102,87,72,65,63,60,64,47,29,29.85,29.78,29.65,10,10,10,26,12,33,0.00,0,,182
2012-7-25,100,85,69,68,64,61,73,53,33,29.71,29.65,29.60,10,10,10,24,12,30,T,0,,299
2012-7-26,96,81,65,65,58,48,87,55,22,29.93,29.83,29.74,10,10,7,21,9,25,0.00,0,,302
2012-7-27,89,75,60,58,54,52,84,57,29,30.06,30.02,29.95,10,10,10,17,8,24,0.00,0,,351
2012-7-28,91,79,67,63,59,57,78,59,40,30.08,30.00,29.90,10,10,10,26,13,33,0.00,0,,130
2012-7-29,100,82,63,65,61,50,93,57,20,29.93,29.90,29.88,10,10,10,18,7,24,0.00,0,,31
2012-7-30,101,85,69,67,61,51,90,56,21,29.94,29.91,29.86,10,10,7,16,5,18,0.00,0,,219
2012-7-31,99,84,69,65,62,58,73,50,26,29.97,29.93,29.88,10,10,10,14,6,18,0.00,0,,127